Regional Weather Roundup
Issued by NWS

Home | Current Version | Previous Version | Text Only | Print | Product List | Glossary On
Versions: 1 2 3 4 5 6 7 8 9 10 11 12 13 14 15 16 17 18 19 20 21 22 23 24 25 26 27 28 29 30 31 32 33 34 35 36 37 38 39 40 41 42 43 44 45 46 47 48 49 50
000
ASUS43 KDTX 211401
RWRMI
MICHIGAN HOURLY REGIONAL WEATHER ROUNDUP
NATIONAL WEATHER SERVICE DETROIT/PONTIAC MI
1000 AM EDT THU AUG 21 2014

NOTE: "FAIR" INDICATES FEW OR NO CLOUDS BELOW 12,000 FEET WITH NO
SIGNIFICANT WEATHER AND/OR OBSTRUCTION TO VISIBILITY.

MIZ047>049-052>055-059>063-066>070-074>076-081>083-211500-
SOUTHEAST LOWER MICHIGAN

CITY           SKY/WX    TMP DP  RH WIND       PRES   REMARKS
ADRIAN         SUNNY     75  69  81 N5        30.01R
ALMA           CLOUDY    65  63  93 NE6       30.02R
ANN ARBOR      SUNNY     75  64  68 E5        29.99R
BAD AXE        CLOUDY    68  65  92 CALM      30.00S
CARO           CLOUDY    67  64  90 CALM      30.00S
DETROIT CITY   SUNNY     75  65  70 VRB7      29.99S
DETROIT        MOSUNNY   75  65  70 CALM      29.99R
FLINT          SUNNY     72  62  71 VRB3      30.00R
GROSSE ILE     SUNNY     73  66  78 SE5       29.98S
HILLSDALE      MOSUNNY   76  70  83 W3        30.00S
HOWELL         SUNNY     70  65  85 NE3       30.00R

CITY           SKY/WX    TMP DP  RH WIND       PRES   REMARKS
JACKSON        CLOUDY    71  69  93 SW5       30.00R FOG
LAMBERTVILLE   PTSUNNY   75  68  78 W6        30.00R
LANSING        SUNNY     69  64  84 NE6       30.00R
LAPEER         CLOUDY    64  63  95 E3        30.01S
MASON          SUNNY     70  65  85 CALM      30.00R
MONROE         SUNNY     73  68  83 CALM      29.97S
MT. CLEMENS    MOSUNNY   71  65  82 E7        29.99R
PONTIAC        MOSUNNY   71  62  73 NE3       29.99S
PORT HOPE        N/A     67  62  84 CALM      29.98S
PORT HURON     PTSUNNY   70  66  88 N7        29.99F
TRI CITIES     CLOUDY    65  61  87 N8        30.01S
TROY           SUNNY     72  63  74 E5        30.02R
SAGINAW HB     CLOUDY    68  66  94 N5        30.00R
$$
MIZ043>046-050>051-056>058-064>065-071>073-077>080-211500-
SOUTHWEST LOWER MICHIGAN

CITY           SKY/WX    TMP DP  RH WIND       PRES   REMARKS
BATTLE CREEK   MOSUNNY   75  68  78 NW6       30.00R
BENTON HARBOR  CLOUDY    73  67  81 SW5       30.00R
BIG RAPIDS     PTSUNNY   65  65 100 CALM      30.00S
COLDWATER      PTSUNNY   75  69  80 W6        30.00R
FREMONT        PTSUNNY   69  64  84 E5        30.00R
HOLLAND        CLOUDY    75  70  84 CALM      30.00R
GRAND RAPIDS   PTSUNNY   72  67  84 E7        30.00R
IONIA          FAIR      67  63  86 E6        30.00R
KALAMAZOO      PTSUNNY   76  67  73 SW7       29.99R
LUDINGTON      MOSUNNY   69  65  86 E5        30.00R
MARSHALL       CLOUDY    72  68  87 CALM      30.00R
MOUNT PLEASANT CLOUDY    64  62  94 CALM      30.01R
MUSKEGON       PTSUNNY   72  63  73 E5        29.99R
SOUTH HAVEN    CLOUDY    74  69  85 SW8       30.00R
$$
MIZ016>042-211500-
NORTHERN LOWER MICHIGAN

CITY           SKY/WX    TMP DP  RH WIND       PRES   REMARKS
ALPENA         CLOUDY    66  62  87 VRB5      30.00R
BEAVER ISLAND  CLOUDY    66  62  88 CALM      30.00R
BELLAIRE       CLOUDY    66  62  87 CALM      30.00R
CADILLAC       SUNNY     67  62  85 NE5       30.01R
CHARLEVOIX     CLOUDY    65  64  98 N3        30.03R
FRANKFORT      SUNNY     69  61  74 E3        30.00R
GAYLORD        CLOUDY    63  59  87 VRB3      30.02R
GRAYLING       CLOUDY    67  63  87 NE3       30.02R
HARBOR SPRINGS CLOUDY    66  61  86 CALM      30.00S
HOUGHTON LAKE  PTSUNNY   68  61  78 E6        30.01S
MANISTEE       CLOUDY    63  59  88 E6        30.00S
OSCODA         CLOUDY    66  63  90 NW5       29.99S
PELLSTON       MOSUNNY   66  61  84 N7        30.01R
ROGERS CITY    CLOUDY    63  63 100 N5        30.01S
TRAVERSE CITY  CLOUDY    68  61  78 NE6       30.00R
$$
MIZ007>008-015-211500-
EASTERN UPPER MICHIGAN

CITY           SKY/WX    TMP DP  RH WIND       PRES   REMARKS
KINROSS        CLOUDY    61  59  94 N5        30.01R
MACKINAC ISLAN CLOUDY    61  61 100 N3        30.00S
NEWBERRY       CLOUDY    61  59  94 CALM      30.00S
S. S. MARIE    CLOUDY    61  58  90 W3        30.00R
$$
MIZ004>006-011>014-085-211500-
CENTRAL UPPER MICHIGAN

CITY           SKY/WX    TMP DP  RH WIND       PRES   REMARKS
MANISTIQUE     CLOUDY    61  61  97 CALM      30.00R
ESCANABA       CLOUDY    63  61  94 E5        30.00R
MENOMINEE      PTSUNNY   70  63  78 E7        29.96F
SAWYER-GWINN   PTSUNNY   63  59  88 E3        30.00R
$$
MIZ001>003-009>011-084-211500-
WESTERN UPPER MICHIGAN

CITY           SKY/WX    TMP DP  RH WIND       PRES   REMARKS
IRON MOUNTAIN  CLOUDY    65  60  84 SE5       29.99S
HOUGHTON       FOG       61  59  93 E8        29.97S VSB 1/4
COPPER HARBOR    N/A     57  56  96 CALM      29.98F
$$

ABBREVIATIONS USED IN REMARKS
   TC - TEMPERATURE IN CELSIUS
  WCI - WIND CHILL INDEX
   HX - HEAT INDEX
  VSB - VISIBILITY



USA.gov is the U.S. government's official web portal to all federal, state and local government web resources and services.